Time,TemperatureF,DewpointF,PressureIn,WindDirection,WindDirectionDegrees,WindSpeedMPH,WindSpeedGustMPH,Humidity,HourlyPrecipIn,Conditions,Clouds,dailyrainin,SoftwareType,DateUTC
2013-04-29 00:01:00,66.0,64.2,29.90,NE,39,0.0,4.0,94,0.00,,---,0.00,VWS V14.01,2013-04-29 05:01:00,
2013-04-29 00:06:00,66.0,64.2,29.90,NE,39,0.0,4.0,94,0.00,,---,0.00,VWS V14.01,2013-04-29 05:06:00,
2013-04-29 00:11:00,66.0,64.2,29.91,NE,39,3.0,4.0,94,0.00,,---,0.00,VWS V14.01,2013-04-29 05:11:00,
2013-04-29 00:16:00,66.0,64.2,29.90,NE,39,0.0,4.0,94,0.00,,---,0.00,VWS V14.01,2013-04-29 05:16:00,
2013-04-29 00:21:00,66.0,64.2,29.90,NE,39,0.0,4.0,94,0.00,,---,0.00,VWS V14.01,2013-04-29 05:21:00,
2013-04-29 00:26:00,66.1,64.3,29.90,NE,39,0.0,4.0,94,0.00,,---,0.00,VWS V14.01,2013-04-29 05:26:00,
2013-04-29 00:31:00,66.0,64.2,29.90,NE,39,0.0,0.0,94,0.00,,---,0.00,VWS V14.01,2013-04-29 05:31:00,
2013-04-29 00:36:00,66.0,64.2,29.90,NE,39,0.0,1.0,94,0.00,,---,0.00,VWS V14.01,2013-04-29 05:36:00,
2013-04-29 00:41:00,65.9,64.1,29.90,NE,39,0.0,1.0,94,0.00,,---,0.00,VWS V14.01,2013-04-29 05:41:00,
2013-04-29 00:46:00,65.9,64.1,29.90,NE,39,0.0,3.0,94,0.00,,---,0.00,VWS V14.01,2013-04-29 05:46:00,
2013-04-29 00:51:00,65.9,64.1,29.90,NE,39,0.0,3.0,94,0.00,,---,0.00,VWS V14.01,2013-04-29 05:51:00,
2013-04-29 00:56:00,65.9,64.1,29.90,NE,39,0.0,3.0,94,0.00,,---,0.00,VWS V14.01,2013-04-29 05:56:00,
2013-04-29 01:01:00,65.8,64.0,29.90,NE,39,0.0,3.0,94,0.00,,---,0.00,VWS V14.01,2013-04-29 06:01:00,
2013-04-29 01:06:00,65.9,64.1,29.90,NE,39,0.0,3.0,94,0.00,,---,0.00,VWS V14.01,2013-04-29 06:06:00,
2013-04-29 01:11:00,65.9,64.1,29.89,NE,39,1.0,3.0,94,0.00,,---,0.00,VWS V14.01,2013-04-29 06:11:00,
2013-04-29 01:16:00,65.9,64.1,29.89,NE,39,0.0,3.0,94,0.00,,---,0.00,VWS V14.01,2013-04-29 06:16:00,
2013-04-29 01:21:00,65.8,64.0,29.89,NE,39,0.0,3.0,94,0.00,,---,0.00,VWS V14.01,2013-04-29 06:21:00,
2013-04-29 01:26:00,65.7,63.9,29.90,NE,39,0.0,3.0,94,0.00,,---,0.00,VWS V14.01,2013-04-29 06:26:00,
2013-04-29 01:31:00,65.7,63.9,29.90,NE,39,0.0,0.0,94,0.00,,---,0.00,VWS V14.01,2013-04-29 06:31:00,
2013-04-29 01:36:00,65.7,63.9,29.89,NE,39,0.0,0.0,94,0.00,,---,0.00,VWS V14.01,2013-04-29 06:36:00,
2013-04-29 01:41:00,65.7,63.9,29.89,NE,39,0.0,0.0,94,0.00,,---,0.00,VWS V14.01,2013-04-29 06:41:00,
2013-04-29 01:46:00,65.6,63.8,29.89,NE,39,0.0,0.0,94,0.00,,---,0.00,VWS V14.01,2013-04-29 06:46:00,
2013-04-29 01:51:00,65.6,64.1,29.88,NE,39,0.0,0.0,95,0.00,,---,0.00,VWS V14.01,2013-04-29 06:51:00,
2013-04-29 01:56:00,65.6,64.1,29.88,NE,39,0.0,0.0,95,0.00,,---,0.00,VWS V14.01,2013-04-29 06:56:00,
2013-04-29 02:01:00,65.5,64.0,29.88,NE,39,0.0,0.0,95,0.00,,---,0.00,VWS V14.01,2013-04-29 07:01:00,
2013-04-29 02:06:00,65.5,64.0,29.88,NE,39,0.0,0.0,95,0.00,,---,0.00,VWS V14.01,2013-04-29 07:06:00,
2013-04-29 02:11:00,65.4,63.9,29.87,NE,39,0.0,0.0,95,0.00,,---,0.00,VWS V14.01,2013-04-29 07:11:00,
2013-04-29 02:16:00,65.4,63.6,29.86,NE,39,0.0,1.0,94,0.00,,---,0.00,VWS V14.01,2013-04-29 07:16:00,
2013-04-29 02:21:00,65.4,63.9,29.87,NE,39,0.0,1.0,95,0.00,,---,0.00,VWS V14.01,2013-04-29 07:21:00,
2013-04-29 02:26:00,65.3,63.8,29.86,NE,39,0.0,1.0,95,0.00,,---,0.00,VWS V14.01,2013-04-29 07:26:00,
2013-04-29 02:31:00,65.3,63.8,29.86,NE,39,0.0,0.0,95,0.00,,---,0.00,VWS V14.01,2013-04-29 07:31:00,
2013-04-29 02:36:00,65.3,63.8,29.86,NE,39,0.0,0.0,95,0.00,,---,0.00,VWS V14.01,2013-04-29 07:36:00,
2013-04-29 02:41:00,65.2,63.7,29.86,NE,39,0.0,1.0,95,0.00,,---,0.00,VWS V14.01,2013-04-29 07:41:00,
2013-04-29 02:46:00,65.2,63.7,29.86,NE,39,0.0,1.0,95,0.00,,---,0.00,VWS V14.01,2013-04-29 07:46:00,
2013-04-29 02:51:00,65.2,63.7,29.85,NE,39,0.0,1.0,95,0.00,,---,0.00,VWS V14.01,2013-04-29 07:51:00,
2013-04-29 02:56:00,65.2,63.7,29.85,NE,39,0.0,1.0,95,0.00,,---,0.00,VWS V14.01,2013-04-29 07:56:00,
2013-04-29 03:01:00,65.2,63.7,29.85,NE,39,0.0,0.0,95,0.00,,---,0.00,VWS V14.01,2013-04-29 08:01:00,
2013-04-29 03:06:00,65.2,63.7,29.85,NE,39,0.0,1.0,95,0.00,,---,0.00,VWS V14.01,2013-04-29 08:06:00,
2013-04-29 03:11:00,65.2,63.7,29.85,NE,39,0.0,1.0,95,0.00,,---,0.00,VWS V14.01,2013-04-29 08:11:00,
2013-04-29 03:16:00,65.2,63.7,29.85,NE,39,0.0,1.0,95,0.00,,---,0.00,VWS V14.01,2013-04-29 08:16:00,
2013-04-29 03:21:00,65.1,63.6,29.85,NE,39,0.0,1.0,95,0.00,,---,0.00,VWS V14.01,2013-04-29 08:21:00,
2013-04-29 03:26:00,65.1,63.6,29.86,NE,39,0.0,1.0,95,0.00,,---,0.00,VWS V14.01,2013-04-29 08:26:00,
2013-04-29 03:31:00,65.1,63.6,29.85,NE,39,0.0,0.0,95,0.00,,---,0.00,VWS V14.01,2013-04-29 08:31:00,
2013-04-29 03:36:00,65.1,63.6,29.85,NE,39,0.0,0.0,95,0.00,,---,0.00,VWS V14.01,2013-04-29 08:36:00,
2013-04-29 03:41:00,65.1,63.6,29.85,NE,39,0.0,0.0,95,0.00,,---,0.00,VWS V14.01,2013-04-29 08:41:00,
2013-04-29 03:46:00,65.1,63.6,29.85,NE,39,0.0,0.0,95,0.00,,---,0.00,VWS V14.01,2013-04-29 08:46:00,
2013-04-29 03:51:00,65.1,63.6,29.85,NE,39,0.0,0.0,95,0.00,,---,0.00,VWS V14.01,2013-04-29 08:51:00,
2013-04-29 03:56:00,65.1,63.6,29.85,NE,39,0.0,0.0,95,0.00,,---,0.00,VWS V14.01,2013-04-29 08:56:00,
2013-04-29 04:01:00,65.1,63.6,29.85,NE,39,0.0,0.0,95,0.00,,---,0.00,VWS V14.01,2013-04-29 09:01:00,
2013-04-29 04:06:00,65.1,63.6,29.85,NE,39,0.0,0.0,95,0.00,,---,0.00,VWS V14.01,2013-04-29 09:06:00,
2013-04-29 04:11:00,65.1,63.6,29.85,NE,39,0.0,0.0,95,0.00,,---,0.00,VWS V14.01,2013-04-29 09:11:00,
2013-04-29 04:16:00,65.2,63.7,29.85,NE,39,0.0,0.0,95,0.00,,---,0.00,VWS V14.01,2013-04-29 09:16:00,
2013-04-29 04:21:00,65.3,63.8,29.85,NE,39,0.0,0.0,95,0.00,,---,0.00,VWS V14.01,2013-04-29 09:21:00,
2013-04-29 04:26:00,65.3,63.8,29.85,NE,39,0.0,0.0,95,0.00,,---,0.00,VWS V14.01,2013-04-29 09:26:00,
2013-04-29 04:31:00,65.3,63.8,29.86,NE,39,0.0,1.0,95,0.00,,---,0.00,VWS V14.01,2013-04-29 09:31:00,
2013-04-29 04:36:00,65.3,63.8,29.86,NE,39,0.0,1.0,95,0.00,,---,0.00,VWS V14.01,2013-04-29 09:36:00,
2013-04-29 04:41:00,65.4,63.9,29.86,NE,39,0.0,3.0,95,0.00,,---,0.00,VWS V14.01,2013-04-29 09:41:00,
2013-04-29 04:46:00,65.4,63.9,29.86,NE,39,1.0,3.0,95,0.00,,---,0.00,VWS V14.01,2013-04-29 09:46:00,
2013-04-29 04:51:00,65.4,63.9,29.86,NE,39,2.0,3.0,95,0.00,,---,0.00,VWS V14.01,2013-04-29 09:51:00,
2013-04-29 04:56:00,65.4,63.9,29.86,North,11,0.0,6.0,95,0.00,,---,0.00,VWS V14.01,2013-04-29 09:56:00,
2013-04-29 05:01:00,65.5,64.0,29.86,North,5,4.0,5.0,95,0.00,,---,0.00,VWS V14.01,2013-04-29 10:01:00,
2013-04-29 05:06:00,65.5,64.0,29.87,North,9,3.0,5.0,95,0.00,,---,0.00,VWS V14.01,2013-04-29 10:06:00,
2013-04-29 05:11:00,65.5,64.0,29.87,North,5,5.0,6.0,95,0.00,,---,0.00,VWS V14.01,2013-04-29 10:11:00,
2013-04-29 05:16:00,65.6,64.1,29.87,North,5,0.0,6.0,95,0.00,,---,0.00,VWS V14.01,2013-04-29 10:16:00,
2013-04-29 05:21:00,65.6,64.1,29.87,North,5,2.0,6.0,95,0.00,,---,0.00,VWS V14.01,2013-04-29 10:21:00,
2013-04-29 05:26:00,65.7,64.2,29.86,North,5,2.0,6.0,95,0.00,,---,0.00,VWS V14.01,2013-04-29 10:26:00,
2013-04-29 05:31:00,65.7,64.2,29.87,North,5,0.0,5.0,95,0.00,,---,0.00,VWS V14.01,2013-04-29 10:31:00,
2013-04-29 05:36:00,65.7,64.2,29.87,North,5,0.0,5.0,95,0.00,,---,0.00,VWS V14.01,2013-04-29 10:36:00,
2013-04-29 05:41:00,65.7,64.2,29.87,North,9,0.0,5.0,95,0.00,,---,0.00,VWS V14.01,2013-04-29 10:41:00,
2013-04-29 05:46:00,65.7,64.2,29.87,North,9,0.0,5.0,95,0.00,,---,0.00,VWS V14.01,2013-04-29 10:46:00,
2013-04-29 05:51:00,65.7,64.2,29.87,North,9,0.0,5.0,95,0.00,,---,0.00,VWS V14.01,2013-04-29 10:51:00,
2013-04-29 05:56:00,65.7,64.2,29.87,North,9,1.0,5.0,95,0.00,,---,0.00,VWS V14.01,2013-04-29 10:56:00,
2013-04-29 06:01:00,65.7,64.2,29.87,NE,49,5.0,6.0,95,0.00,,---,0.00,VWS V14.01,2013-04-29 11:01:00,
2013-04-29 06:06:00,65.7,64.2,29.87,NE,48,3.0,6.0,95,0.00,,---,0.00,VWS V14.01,2013-04-29 11:06:00,
2013-04-29 06:11:00,65.7,64.2,29.87,NE,53,0.0,6.0,95,0.00,,---,0.00,VWS V14.01,2013-04-29 11:11:00,
2013-04-29 06:16:00,65.8,64.3,29.87,NE,53,0.0,6.0,95,0.00,,---,0.00,VWS V14.01,2013-04-29 11:16:00,
2013-04-29 06:21:00,65.8,64.3,29.87,NE,53,0.0,6.0,95,0.00,,---,0.00,VWS V14.01,2013-04-29 11:21:00,
2013-04-29 06:26:00,65.7,64.2,29.88,NE,53,0.0,6.0,95,0.00,,---,0.00,VWS V14.01,2013-04-29 11:26:00,
2013-04-29 06:31:00,65.7,63.9,29.88,NE,53,0.0,3.0,94,0.00,,---,0.00,VWS V14.01,2013-04-29 11:31:00,
2013-04-29 06:36:00,65.7,63.9,29.88,NE,53,0.0,3.0,94,0.00,,---,0.00,VWS V14.01,2013-04-29 11:36:00,
2013-04-29 06:41:00,65.7,63.9,29.88,NE,53,0.0,3.0,94,0.00,,---,0.00,VWS V14.01,2013-04-29 11:41:00,
2013-04-29 06:46:00,65.7,63.9,29.88,NE,53,0.0,3.0,94,0.00,,---,0.00,VWS V14.01,2013-04-29 11:46:00,
2013-04-29 06:51:00,65.7,63.9,29.88,NE,53,2.0,3.0,94,0.00,,---,0.00,VWS V14.01,2013-04-29 11:51:00,
2013-04-29 06:56:00,65.7,63.9,29.88,NE,53,0.0,3.0,94,0.00,,---,0.00,VWS V14.01,2013-04-29 11:56:00,
2013-04-29 07:01:00,65.8,64.0,29.89,NE,53,1.0,4.0,94,0.00,,---,0.00,VWS V14.01,2013-04-29 12:01:00,
2013-04-29 07:06:00,65.8,64.0,29.89,NE,53,0.0,4.0,94,0.00,,---,0.00,VWS V14.01,2013-04-29 12:06:00,
2013-04-29 07:11:00,65.9,64.1,29.89,NE,53,0.0,4.0,94,0.00,,---,0.00,VWS V14.01,2013-04-29 12:11:00,
2013-04-29 07:16:00,65.9,64.1,29.89,NE,53,2.0,4.0,94,0.00,,---,0.00,VWS V14.01,2013-04-29 12:16:00,
2013-04-29 07:21:00,66.0,64.2,29.89,NE,53,0.0,4.0,94,0.00,,---,0.00,VWS V14.01,2013-04-29 12:21:00,
2013-04-29 07:26:00,66.0,64.2,29.89,NE,53,0.0,4.0,94,0.00,,---,0.00,VWS V14.01,2013-04-29 12:26:00,
2013-04-29 07:31:00,66.1,64.3,29.89,NE,53,3.0,4.0,94,0.00,,---,0.00,VWS V14.01,2013-04-29 12:31:00,
2013-04-29 07:36:00,66.2,64.4,29.90,NE,53,0.0,4.0,94,0.00,,---,0.00,VWS V14.01,2013-04-29 12:36:00,
2013-04-29 07:41:00,66.2,64.4,29.90,NE,53,4.0,5.0,94,0.00,,---,0.00,VWS V14.01,2013-04-29 12:41:00,
2013-04-29 07:46:00,66.3,64.2,29.90,NE,50,1.0,5.0,93,0.00,,---,0.00,VWS V14.01,2013-04-29 12:46:00,
2013-04-29 07:51:00,66.3,64.2,29.90,NE,40,3.0,7.0,93,0.00,,---,0.00,VWS V14.01,2013-04-29 12:51:00,
2013-04-29 07:56:00,66.3,64.2,29.90,NE,39,2.0,7.0,93,0.00,,---,0.00,VWS V14.01,2013-04-29 12:56:00,
2013-04-29 08:01:00,66.3,63.9,29.90,NE,44,5.0,10.0,92,0.00,,---,0.00,VWS V14.01,2013-04-29 13:01:00,
2013-04-29 08:06:00,66.3,63.9,29.91,NE,38,2.0,11.0,92,0.00,,---,0.00,VWS V14.01,2013-04-29 13:06:00,
2013-04-29 08:11:00,66.5,64.1,29.91,NE,49,3.0,11.0,92,0.00,,---,0.00,VWS V14.01,2013-04-29 13:11:00,
2013-04-29 08:16:00,66.8,64.4,29.91,NE,47,4.0,11.0,92,0.00,,---,0.00,VWS V14.01,2013-04-29 13:16:00,
2013-04-29 08:21:00,67.0,64.3,29.91,NE,54,4.0,11.0,91,0.00,,---,0.00,VWS V14.01,2013-04-29 13:21:00,
2013-04-29 08:26:00,67.1,64.4,29.90,NE,53,3.0,11.0,91,0.00,,---,0.00,VWS V14.01,2013-04-29 13:26:00,
2013-04-29 08:31:00,67.6,64.9,29.90,NE,55,5.0,7.0,91,0.00,,---,0.00,VWS V14.01,2013-04-29 13:31:00,
2013-04-29 08:36:00,68.3,65.3,29.90,NE,51,5.0,8.0,90,0.00,,---,0.00,VWS V14.01,2013-04-29 13:36:00,
2013-04-29 08:41:00,68.7,65.0,29.91,NE,50,3.0,8.0,88,0.00,,---,0.00,VWS V14.01,2013-04-29 13:41:00,
2013-04-29 08:46:00,69.3,65.6,29.91,NE,49,0.0,8.0,88,0.00,,---,0.00,VWS V14.01,2013-04-29 13:46:00,
2013-04-29 08:51:00,70.2,66.2,29.91,NE,53,4.0,8.0,87,0.00,,---,0.00,VWS V14.01,2013-04-29 13:51:00,
2013-04-29 08:56:00,70.7,66.3,29.91,NE,53,4.0,8.0,86,0.00,,---,0.00,VWS V14.01,2013-04-29 13:56:00,
2013-04-29 09:01:00,71.3,66.6,29.91,ENE,61,2.0,4.0,85,0.00,,---,0.00,VWS V14.01,2013-04-29 14:01:00,
2013-04-29 09:06:00,71.9,66.8,29.91,NE,46,4.0,6.0,84,0.00,,---,0.00,VWS V14.01,2013-04-29 14:06:00,
2013-04-29 09:11:00,72.1,66.7,29.91,NE,54,5.0,6.0,83,0.00,,---,0.00,VWS V14.01,2013-04-29 14:11:00,
2013-04-29 09:16:00,71.9,66.8,29.91,NE,49,3.0,7.0,84,0.00,,---,0.00,VWS V14.01,2013-04-29 14:16:00,
2013-04-29 09:21:00,72.2,67.4,29.91,NE,49,5.0,7.0,85,0.00,,---,0.00,VWS V14.01,2013-04-29 14:21:00,
2013-04-29 09:26:00,72.3,67.2,29.91,NE,45,3.0,7.0,84,0.00,,---,0.00,VWS V14.01,2013-04-29 14:26:00,
2013-04-29 09:31:00,72.5,67.4,29.91,NE,44,4.0,6.0,84,0.00,,---,0.00,VWS V14.01,2013-04-29 14:31:00,
2013-04-29 09:36:00,72.7,67.2,29.91,NE,46,5.0,7.0,83,0.00,,---,0.00,VWS V14.01,2013-04-29 14:36:00,
2013-04-29 09:41:00,72.7,67.2,29.91,ENE,61,5.0,7.0,83,0.00,,---,0.00,VWS V14.01,2013-04-29 14:41:00,
2013-04-29 09:46:00,72.9,67.4,29.91,East,90,0.0,7.0,83,0.00,,---,0.00,VWS V14.01,2013-04-29 14:46:00,
2013-04-29 09:51:00,73.5,68.0,29.91,NE,50,3.0,7.0,83,0.00,,---,0.00,VWS V14.01,2013-04-29 14:51:00,
2013-04-29 09:56:00,73.9,68.1,29.91,NE,50,9.0,9.0,82,0.00,,---,0.00,VWS V14.01,2013-04-29 14:56:00,
2013-04-29 10:01:00,73.9,68.1,29.91,ENE,67,4.0,4.0,82,0.00,,---,0.00,VWS V14.01,2013-04-29 15:01:00,
2013-04-29 10:06:00,74.4,67.8,29.91,ENE,65,0.0,6.0,80,0.00,,---,0.00,VWS V14.01,2013-04-29 15:06:00,
2013-04-29 10:11:00,74.5,67.9,29.91,NE,55,6.0,7.0,80,0.00,,---,0.00,VWS V14.01,2013-04-29 15:11:00,
2013-04-29 10:16:00,74.5,67.9,29.91,ENE,66,4.0,7.0,80,0.00,,---,0.00,VWS V14.01,2013-04-29 15:16:00,
2013-04-29 10:21:00,75.0,68.1,29.91,East,96,3.0,7.0,79,0.00,,---,0.00,VWS V14.01,2013-04-29 15:21:00,
2013-04-29 10:26:00,75.5,68.2,29.91,ESE,103,0.0,7.0,78,0.00,,---,0.00,VWS V14.01,2013-04-29 15:26:00,
2013-04-29 10:31:00,75.7,68.0,29.91,ESE,103,0.0,0.0,77,0.00,,---,0.00,VWS V14.01,2013-04-29 15:31:00,
2013-04-29 10:36:00,76.0,67.9,29.91,ENE,61,2.0,8.0,76,0.00,,---,0.00,VWS V14.01,2013-04-29 15:36:00,
2013-04-29 10:41:00,75.9,68.2,29.91,ENE,61,6.0,8.0,77,0.00,,---,0.00,VWS V14.01,2013-04-29 15:41:00,
2013-04-29 10:46:00,75.9,67.4,29.91,NE,53,2.0,9.0,75,0.00,,---,0.00,VWS V14.01,2013-04-29 15:46:00,
2013-04-29 10:51:00,75.6,67.5,29.91,ENE,62,4.0,9.0,76,0.00,,---,0.00,VWS V14.01,2013-04-29 15:51:00,
2013-04-29 10:56:00,75.4,67.7,29.91,ENE,77,4.0,9.0,77,0.00,,---,0.00,VWS V14.01,2013-04-29 15:56:00,
2013-04-29 11:01:00,75.7,68.4,29.91,ENE,63,2.0,4.0,78,0.00,,---,0.00,VWS V14.01,2013-04-29 16:01:00,
2013-04-29 11:06:00,75.8,67.3,29.91,ENE,63,0.0,4.0,75,0.00,,---,0.00,VWS V14.01,2013-04-29 16:06:00,
2013-04-29 11:11:00,75.8,66.9,29.91,ENE,62,0.0,4.0,74,0.00,,---,0.00,VWS V14.01,2013-04-29 16:11:00,
2013-04-29 11:16:00,76.1,67.6,29.91,ENE,62,2.0,4.0,75,0.00,,---,0.00,VWS V14.01,2013-04-29 16:16:00,
2013-04-29 11:20:00,76.3,67.4,29.91,ENE,62,0.0,4.0,74,0.00,,---,0.00,VWS V14.01,2013-04-29 16:20:00,
2013-04-29 11:25:00,76.2,67.3,29.91,ENE,62,0.0,4.0,74,0.00,,---,0.00,VWS V14.01,2013-04-29 16:25:00,
2013-04-29 11:31:00,75.9,67.0,29.91,ENE,61,0.0,2.0,74,0.00,,---,0.00,VWS V14.01,2013-04-29 16:31:00,
2013-04-29 11:36:00,75.5,68.5,29.91,NNW,341,4.0,4.0,79,0.06,,---,0.06,VWS V14.01,2013-04-29 16:36:00,
2013-04-29 11:40:00,74.0,67.4,29.91,WNW,297,0.0,6.0,80,0.16,,---,0.16,VWS V14.01,2013-04-29 16:40:00,
2013-04-29 11:45:00,72.8,66.3,29.91,North,355,4.0,6.0,80,0.19,,---,0.19,VWS V14.01,2013-04-29 16:45:00,
2013-04-29 11:50:00,72.3,66.8,29.91,North,355,0.0,6.0,83,0.19,,---,0.19,VWS V14.01,2013-04-29 16:50:00,
2013-04-29 11:55:00,71.9,68.2,29.91,North,360,1.0,6.0,88,0.19,,---,0.19,VWS V14.01,2013-04-29 16:55:00,
2013-04-29 12:00:00,71.7,68.3,29.90,South,188,1.0,2.0,89,0.19,,---,0.19,VWS V14.01,2013-04-29 17:00:00,
2013-04-29 12:05:00,71.4,68.0,29.90,South,169,3.0,4.0,89,0.19,,---,0.19,VWS V14.01,2013-04-29 17:05:00,
2013-04-29 12:10:00,71.7,68.9,29.90,South,169,0.0,4.0,91,0.19,,---,0.19,VWS V14.01,2013-04-29 17:10:00,
2013-04-29 12:15:00,72.1,69.0,29.90,SSE,161,3.0,4.0,90,0.19,,---,0.19,VWS V14.01,2013-04-29 17:15:00,
2013-04-29 12:20:00,72.6,68.8,29.90,ESE,113,4.0,7.0,88,0.19,,---,0.19,VWS V14.01,2013-04-29 17:20:00,
2013-04-29 12:25:00,73.2,69.4,29.89,SSE,150,3.0,10.0,88,0.19,,---,0.19,VWS V14.01,2013-04-29 17:25:00,
2013-04-29 12:30:00,73.5,69.1,29.89,ESE,106,2.0,5.0,86,0.19,,---,0.19,VWS V14.01,2013-04-29 17:30:00,
2013-04-29 12:35:00,74.0,69.2,29.90,SE,136,2.0,9.0,85,0.19,,---,0.19,VWS V14.01,2013-04-29 17:35:00,
2013-04-29 12:40:00,74.3,69.2,29.89,East,98,4.0,10.0,84,0.19,,---,0.19,VWS V14.01,2013-04-29 17:40:00,
2013-04-29 12:45:00,74.2,68.7,29.89,ENE,66,3.0,10.0,83,0.19,,---,0.19,VWS V14.01,2013-04-29 17:45:00,
2013-04-29 12:50:00,74.0,68.5,29.89,ESE,103,0.0,10.0,83,0.19,,---,0.19,VWS V14.01,2013-04-29 17:50:00,
2013-04-29 12:55:00,73.9,68.4,29.89,SE,141,2.0,10.0,83,0.19,,---,0.19,VWS V14.01,2013-04-29 17:55:00,
2013-04-29 13:00:00,74.0,68.2,29.89,SSE,154,0.0,5.0,82,0.00,,---,0.19,VWS V14.01,2013-04-29 18:00:00,
2013-04-29 13:05:00,74.0,67.1,29.89,ESE,121,0.0,5.0,79,0.00,,---,0.19,VWS V14.01,2013-04-29 18:05:00,
2013-04-29 13:10:00,74.1,67.5,29.89,East,100,1.0,5.0,80,0.00,,---,0.19,VWS V14.01,2013-04-29 18:10:00,
2013-04-29 13:15:00,74.5,67.9,29.89,East,101,1.0,5.0,80,0.00,,---,0.19,VWS V14.01,2013-04-29 18:15:00,
2013-04-29 13:20:00,74.7,67.8,29.89,ESE,111,1.0,5.0,79,0.00,,---,0.19,VWS V14.01,2013-04-29 18:20:00,
2013-04-29 13:25:00,74.8,68.9,29.89,ESE,119,0.0,5.0,82,0.01,,---,0.20,VWS V14.01,2013-04-29 18:25:00,
2013-04-29 13:30:00,75.0,68.1,29.89,ESE,119,0.0,1.0,79,0.01,,---,0.20,VWS V14.01,2013-04-29 18:30:00,
2013-04-29 13:35:00,75.0,68.1,29.89,ESE,119,1.0,1.0,79,0.01,,---,0.20,VWS V14.01,2013-04-29 18:35:00,
2013-04-29 13:40:00,74.9,67.9,29.88,ESE,115,0.0,4.0,79,0.01,,---,0.20,VWS V14.01,2013-04-29 18:40:00,
2013-04-29 13:45:00,75.2,68.2,29.88,ESE,115,0.0,4.0,79,0.01,,---,0.20,VWS V14.01,2013-04-29 18:45:00,
2013-04-29 13:50:00,75.7,67.2,29.87,ENE,77,3.0,4.0,75,0.01,,---,0.20,VWS V14.01,2013-04-29 18:50:00,
2013-04-29 13:55:00,76.0,67.5,29.88,ENE,71,0.0,4.0,75,0.01,,---,0.20,VWS V14.01,2013-04-29 18:55:00,
2013-04-29 14:00:00,76.5,67.2,29.88,ENE,71,0.0,4.0,73,0.01,,---,0.20,VWS V14.01,2013-04-29 19:00:00,
2013-04-29 14:05:00,76.9,67.2,29.87,NE,46,2.0,6.0,72,0.01,,---,0.20,VWS V14.01,2013-04-29 19:05:00,
2013-04-29 14:10:00,77.1,67.0,29.87,NE,54,2.0,7.0,71,0.01,,---,0.20,VWS V14.01,2013-04-29 19:10:00,
2013-04-29 14:15:00,77.4,67.3,29.87,NE,54,0.0,7.0,71,0.01,,---,0.20,VWS V14.01,2013-04-29 19:15:00,
2013-04-29 14:20:00,77.6,66.2,29.87,NE,51,0.0,7.0,68,0.01,,---,0.20,VWS V14.01,2013-04-29 19:20:00,
2013-04-29 14:25:00,77.9,66.9,29.86,NE,51,5.0,7.0,69,0.01,,---,0.20,VWS V14.01,2013-04-29 19:25:00,
2013-04-29 14:30:00,77.6,66.2,29.86,NE,52,0.0,1.0,68,0.00,,---,0.20,VWS V14.01,2013-04-29 19:30:00,
2013-04-29 14:35:00,77.8,66.4,29.86,NE,52,0.0,3.0,68,0.00,,---,0.20,VWS V14.01,2013-04-29 19:35:00,
2013-04-29 14:40:00,78.0,66.6,29.86,NE,46,0.0,4.0,68,0.00,,---,0.20,VWS V14.01,2013-04-29 19:40:00,
2013-04-29 14:45:00,78.2,66.4,29.86,NE,46,2.0,4.0,67,0.00,,---,0.20,VWS V14.01,2013-04-29 19:45:00,
2013-04-29 14:50:00,78.5,66.6,29.85,NE,45,2.0,4.0,67,0.00,,---,0.20,VWS V14.01,2013-04-29 19:50:00,
2013-04-29 14:55:00,78.5,66.2,29.85,NNE,27,0.0,4.0,66,0.00,,---,0.20,VWS V14.01,2013-04-29 19:55:00,
2013-04-29 15:00:00,78.9,67.0,29.84,NNE,27,0.0,1.0,67,0.00,,---,0.20,VWS V14.01,2013-04-29 20:00:00,
2013-04-29 15:05:00,79.6,68.1,29.85,NNE,13,0.0,6.0,68,0.00,,---,0.20,VWS V14.01,2013-04-29 20:05:00,
2013-04-29 15:10:00,79.7,66.9,29.84,NNE,15,0.0,6.0,65,0.00,,---,0.20,VWS V14.01,2013-04-29 20:10:00,
2013-04-29 15:15:00,79.8,66.1,29.84,NNE,13,3.0,6.0,63,0.00,,---,0.20,VWS V14.01,2013-04-29 20:15:00,
2013-04-29 15:20:00,79.4,66.6,29.84,NNE,12,0.0,6.0,65,0.00,,---,0.20,VWS V14.01,2013-04-29 20:20:00,
2013-04-29 15:25:00,79.1,65.4,29.84,NNE,12,0.0,6.0,63,0.00,,---,0.20,VWS V14.01,2013-04-29 20:25:00,
2013-04-29 15:30:00,79.6,67.7,29.84,SW,224,4.0,5.0,67,0.00,,---,0.20,VWS V14.01,2013-04-29 20:30:00,
2013-04-29 15:35:00,79.9,67.5,29.84,SW,233,3.0,5.0,66,0.00,,---,0.20,VWS V14.01,2013-04-29 20:35:00,
2013-04-29 15:40:00,79.7,66.9,29.84,SSW,210,3.0,7.0,65,0.00,,---,0.20,VWS V14.01,2013-04-29 20:40:00,
2013-04-29 15:45:00,79.8,67.4,29.84,SW,222,3.0,7.0,66,0.00,,---,0.20,VWS V14.01,2013-04-29 20:45:00,
2013-04-29 15:50:00,79.9,66.2,29.84,SSW,213,2.0,7.0,63,0.00,,---,0.20,VWS V14.01,2013-04-29 20:50:00,
2013-04-29 15:55:00,80.1,66.8,29.84,SSW,209,0.0,7.0,64,0.00,,---,0.20,VWS V14.01,2013-04-29 20:55:00,
2013-04-29 16:00:00,80.0,65.8,29.84,South,177,1.0,1.0,62,0.00,,---,0.20,VWS V14.01,2013-04-29 21:00:00,
2013-04-29 16:05:00,80.6,66.8,29.83,WSW,243,2.0,6.0,63,0.00,,---,0.20,VWS V14.01,2013-04-29 21:05:00,
2013-04-29 16:10:00,80.6,66.8,29.83,SSE,155,3.0,6.0,63,0.00,,---,0.20,VWS V14.01,2013-04-29 21:10:00,
2013-04-29 16:15:00,80.3,66.6,29.83,SSE,167,1.0,6.0,63,0.00,,---,0.20,VWS V14.01,2013-04-29 21:15:00,
2013-04-29 16:20:00,80.7,67.8,29.83,SSE,167,0.0,6.0,65,0.00,,---,0.20,VWS V14.01,2013-04-29 21:20:00,
2013-04-29 16:25:00,80.7,66.0,29.83,SSW,197,0.0,6.0,61,0.00,,---,0.20,VWS V14.01,2013-04-29 21:25:00,
2013-04-29 16:30:00,80.5,66.8,29.83,SW,215,0.0,2.0,63,0.00,,---,0.20,VWS V14.01,2013-04-29 21:30:00,
2013-04-29 16:35:00,80.6,67.3,29.83,SW,215,0.0,3.0,64,0.00,,---,0.20,VWS V14.01,2013-04-29 21:35:00,
2013-04-29 16:40:00,80.7,67.4,29.82,SW,215,0.0,3.0,64,0.00,,---,0.20,VWS V14.01,2013-04-29 21:40:00,
2013-04-29 16:45:00,80.5,68.1,29.83,SW,215,1.0,3.0,66,0.00,,---,0.20,VWS V14.01,2013-04-29 21:45:00,
2013-04-29 16:50:00,80.0,68.1,29.83,SW,215,0.0,4.0,67,0.00,,---,0.20,VWS V14.01,2013-04-29 21:50:00,
2013-04-29 16:55:00,79.8,68.7,29.83,SW,214,1.0,4.0,69,0.00,,---,0.20,VWS V14.01,2013-04-29 21:55:00,
2013-04-29 17:00:00,79.4,67.5,29.82,SSW,192,0.0,5.0,67,0.00,,---,0.20,VWS V14.01,2013-04-29 22:00:00,
2013-04-29 17:05:00,78.9,67.9,29.82,SSW,206,5.0,6.0,69,0.00,,---,0.20,VWS V14.01,2013-04-29 22:05:00,
2013-04-29 17:10:00,78.5,67.5,29.83,WSW,246,2.0,8.0,69,0.00,,---,0.20,VWS V14.01,2013-04-29 22:10:00,
2013-04-29 17:15:00,78.3,67.7,29.82,South,190,6.0,10.0,70,0.00,,---,0.20,VWS V14.01,2013-04-29 22:15:00,
2013-04-29 17:20:00,78.2,67.6,29.82,SSW,196,0.0,10.0,70,0.00,,---,0.20,VWS V14.01,2013-04-29 22:20:00,
2013-04-29 17:25:00,78.2,67.6,29.82,SSW,195,3.0,10.0,70,0.00,,---,0.20,VWS V14.01,2013-04-29 22:25:00,
2013-04-29 17:30:00,78.2,67.6,29.82,SSW,203,0.0,2.0,70,0.00,,---,0.20,VWS V14.01,2013-04-29 22:30:00,
2013-04-29 17:35:00,78.2,67.2,29.82,SW,219,3.0,6.0,69,0.00,,---,0.20,VWS V14.01,2013-04-29 22:35:00,
2013-04-29 17:40:00,78.3,67.7,29.82,WSW,238,5.0,7.0,70,0.00,,---,0.20,VWS V14.01,2013-04-29 22:40:00,
2013-04-29 17:45:00,78.3,68.1,29.83,SW,223,0.0,7.0,71,0.00,,---,0.20,VWS V14.01,2013-04-29 22:45:00,
2013-04-29 17:50:00,78.3,68.1,29.83,SW,225,1.0,7.0,71,0.00,,---,0.20,VWS V14.01,2013-04-29 22:50:00,
2013-04-29 17:55:00,78.3,68.5,29.83,SSW,211,3.0,7.0,72,0.00,,---,0.20,VWS V14.01,2013-04-29 22:55:00,
2013-04-29 18:00:00,78.2,68.0,29.83,SW,221,1.0,2.0,71,0.00,,---,0.20,VWS V14.01,2013-04-29 23:00:00,
2013-04-29 18:05:00,78.2,68.8,29.82,SSW,212,1.0,4.0,73,0.00,,---,0.20,VWS V14.01,2013-04-29 23:05:00,
2013-04-29 18:10:00,77.9,68.2,29.82,SSW,196,2.0,6.0,72,0.00,,---,0.20,VWS V14.01,2013-04-29 23:10:00,
2013-04-29 18:15:00,77.6,67.9,29.82,SSW,212,2.0,6.0,72,0.00,,---,0.20,VWS V14.01,2013-04-29 23:15:00,
2013-04-29 18:20:00,77.4,68.1,29.82,SSW,194,0.0,6.0,73,0.00,,---,0.20,VWS V14.01,2013-04-29 23:20:00,
2013-04-29 18:25:00,77.3,68.4,29.82,SSW,194,0.0,6.0,74,0.00,,---,0.20,VWS V14.01,2013-04-29 23:25:00,
2013-04-29 18:30:00,77.2,67.9,29.82,SSW,194,0.0,0.0,73,0.00,,---,0.20,VWS V14.01,2013-04-29 23:30:00,
2013-04-29 18:35:00,77.0,68.1,29.82,SSW,196,0.0,4.0,74,0.00,,---,0.20,VWS V14.01,2013-04-29 23:35:00,
2013-04-29 18:40:00,76.7,67.8,29.82,South,187,2.0,4.0,74,0.00,,---,0.20,VWS V14.01,2013-04-29 23:40:00,
2013-04-29 18:45:00,76.2,67.7,29.82,SSW,201,0.0,6.0,75,0.00,,---,0.20,VWS V14.01,2013-04-29 23:45:00,
2013-04-29 18:50:00,75.9,67.8,29.82,SSW,199,0.0,6.0,76,0.00,,---,0.20,VWS V14.01,2013-04-29 23:50:00,
2013-04-29 18:55:00,75.6,67.9,29.82,SSW,200,0.0,6.0,77,0.00,,---,0.20,VWS V14.01,2013-04-29 23:55:00,
2013-04-29 19:00:00,75.3,68.0,29.83,SSW,200,0.0,0.0,78,0.00,,---,0.20,VWS V14.01,2013-04-30 00:00:00,
2013-04-29 19:05:00,75.0,68.1,29.83,SSW,200,1.0,2.0,79,0.00,,---,0.20,VWS V14.01,2013-04-30 00:05:00,
2013-04-29 19:10:00,74.7,68.1,29.82,SSW,196,1.0,2.0,80,0.00,,---,0.20,VWS V14.01,2013-04-30 00:10:00,
2013-04-29 19:15:00,74.4,68.2,29.82,SSW,195,0.0,2.0,81,0.00,,---,0.20,VWS V14.01,2013-04-30 00:15:00,
2013-04-29 19:20:00,74.1,68.3,29.82,SSW,195,1.0,2.0,82,0.00,,---,0.20,VWS V14.01,2013-04-30 00:20:00,
2013-04-29 19:25:00,73.8,68.3,29.82,SSW,195,0.0,2.0,83,0.00,,---,0.20,VWS V14.01,2013-04-30 00:25:00,
2013-04-29 19:30:00,73.5,68.0,29.82,SSW,195,0.0,0.0,83,0.00,,---,0.20,VWS V14.01,2013-04-30 00:30:00,
2013-04-29 19:35:00,73.2,68.1,29.82,SSW,195,0.0,1.0,84,0.00,,---,0.20,VWS V14.01,2013-04-30 00:35:00,
2013-04-29 19:40:00,72.9,67.8,29.83,SSW,195,0.0,1.0,84,0.00,,---,0.20,VWS V14.01,2013-04-30 00:40:00,
2013-04-29 19:45:00,72.6,67.8,29.82,SSW,195,0.0,1.0,85,0.00,,---,0.20,VWS V14.01,2013-04-30 00:45:00,
2013-04-29 19:50:00,72.4,67.6,29.83,SSW,195,0.0,1.0,85,0.00,,---,0.20,VWS V14.01,2013-04-30 00:50:00,
2013-04-29 19:55:00,72.1,67.7,29.83,SSW,195,0.0,1.0,86,0.00,,---,0.20,VWS V14.01,2013-04-30 00:55:00,
2013-04-29 20:00:00,71.7,67.3,29.83,SSW,195,0.0,0.0,86,0.00,,---,0.20,VWS V14.01,2013-04-30 01:00:00,
2013-04-29 20:05:00,71.3,67.2,29.83,SSW,195,0.0,0.0,87,0.00,,---,0.20,VWS V14.01,2013-04-30 01:05:00,
2013-04-29 20:10:00,71.1,67.4,29.83,SSW,195,0.0,1.0,88,0.00,,---,0.20,VWS V14.01,2013-04-30 01:10:00,
2013-04-29 20:15:00,70.8,67.1,29.83,SSW,195,0.0,1.0,88,0.00,,---,0.20,VWS V14.01,2013-04-30 01:15:00,
2013-04-29 20:20:00,70.5,67.1,29.83,SSW,195,0.0,1.0,89,0.00,,---,0.20,VWS V14.01,2013-04-30 01:20:00,
2013-04-29 20:25:00,70.3,66.9,29.83,SSW,195,0.0,1.0,89,0.00,,---,0.20,VWS V14.01,2013-04-30 01:25:00,
2013-04-29 20:30:00,70.0,66.6,29.83,SSW,195,0.0,0.0,89,0.00,,---,0.20,VWS V14.01,2013-04-30 01:30:00,
2013-04-29 20:35:00,69.8,66.7,29.83,SSW,195,0.0,1.0,90,0.00,,---,0.20,VWS V14.01,2013-04-30 01:35:00,
2013-04-29 20:40:00,69.7,66.6,29.83,SSW,195,0.0,1.0,90,0.00,,---,0.20,VWS V14.01,2013-04-30 01:40:00,
2013-04-29 20:45:00,69.5,66.4,29.84,SSW,195,0.0,1.0,90,0.00,,---,0.20,VWS V14.01,2013-04-30 01:45:00,
2013-04-29 20:50:00,69.3,66.6,29.84,SSW,195,0.0,1.0,91,0.00,,---,0.20,VWS V14.01,2013-04-30 01:50:00,
2013-04-29 20:55:00,69.2,66.5,29.84,SSW,195,0.0,1.0,91,0.00,,---,0.20,VWS V14.01,2013-04-30 01:55:00,
2013-04-29 21:00:00,69.0,66.3,29.84,SSW,195,0.0,0.0,91,0.00,,---,0.20,VWS V14.01,2013-04-30 02:00:00,
2013-04-29 21:05:00,68.8,66.1,29.84,SSW,195,0.0,0.0,91,0.00,,---,0.20,VWS V14.01,2013-04-30 02:05:00,
2013-04-29 21:10:00,68.7,66.3,29.84,SSW,195,0.0,0.0,92,0.00,,---,0.20,VWS V14.01,2013-04-30 02:10:00,
2013-04-29 21:15:00,68.6,66.2,29.84,SSW,195,0.0,0.0,92,0.00,,---,0.20,VWS V14.01,2013-04-30 02:15:00,
2013-04-29 21:20:00,68.5,66.1,29.85,SSW,195,0.0,0.0,92,0.00,,---,0.20,VWS V14.01,2013-04-30 02:20:00,
2013-04-29 21:25:00,68.4,66.0,29.85,SSW,195,0.0,0.0,92,0.00,,---,0.20,VWS V14.01,2013-04-30 02:25:00,
2013-04-29 21:30:00,68.3,65.9,29.85,SSW,195,0.0,0.0,92,0.00,,---,0.20,VWS V14.01,2013-04-30 02:30:00,
2013-04-29 21:35:00,68.2,66.1,29.86,SSW,195,0.0,0.0,93,0.00,,---,0.20,VWS V14.01,2013-04-30 02:35:00,
2013-04-29 21:40:00,68.1,66.0,29.85,SSW,195,0.0,0.0,93,0.00,,---,0.20,VWS V14.01,2013-04-30 02:40:00,
2013-04-29 21:45:00,68.0,65.9,29.86,SSW,195,0.0,0.0,93,0.00,,---,0.20,VWS V14.01,2013-04-30 02:45:00,
2013-04-29 21:50:00,68.0,65.9,29.86,SSW,195,0.0,1.0,93,0.00,,---,0.20,VWS V14.01,2013-04-30 02:50:00,
2013-04-29 21:55:00,68.0,66.2,29.86,SSW,195,0.0,1.0,94,0.00,,---,0.20,VWS V14.01,2013-04-30 02:55:00,
2013-04-29 22:00:00,67.9,65.8,29.86,SSW,195,0.0,0.0,93,0.00,,---,0.20,VWS V14.01,2013-04-30 03:00:00,
2013-04-29 22:05:00,67.7,65.6,29.86,SSW,195,0.0,0.0,93,0.00,,---,0.20,VWS V14.01,2013-04-30 03:05:00,
2013-04-29 22:10:00,67.5,65.4,29.86,SSW,195,0.0,0.0,93,0.00,,---,0.20,VWS V14.01,2013-04-30 03:10:00,
2013-04-29 22:15:00,67.4,65.3,29.86,SSW,195,0.0,0.0,93,0.00,,---,0.20,VWS V14.01,2013-04-30 03:15:00,
2013-04-29 22:20:00,67.3,65.5,29.85,SSW,195,0.0,0.0,94,0.00,,---,0.20,VWS V14.01,2013-04-30 03:20:00,
2013-04-29 22:25:00,67.2,65.4,29.86,SSW,195,0.0,0.0,94,0.00,,---,0.20,VWS V14.01,2013-04-30 03:25:00,
2013-04-29 22:30:00,67.1,65.3,29.86,SSW,195,0.0,0.0,94,0.00,,---,0.20,VWS V14.01,2013-04-30 03:30:00,
2013-04-29 22:35:00,67.1,65.3,29.86,SSW,195,0.0,1.0,94,0.00,,---,0.20,VWS V14.01,2013-04-30 03:35:00,
2013-04-29 22:40:00,67.0,65.2,29.86,SSW,195,0.0,1.0,94,0.00,,---,0.20,VWS V14.01,2013-04-30 03:40:00,
2013-04-29 22:45:00,66.8,65.0,29.86,SSW,195,0.0,1.0,94,0.00,,---,0.20,VWS V14.01,2013-04-30 03:45:00,
2013-04-29 22:50:00,66.6,64.8,29.86,SSW,195,0.0,1.0,94,0.00,,---,0.20,VWS V14.01,2013-04-30 03:50:00,
2013-04-29 22:55:00,66.5,64.7,29.86,SSW,195,0.0,1.0,94,0.00,,---,0.20,VWS V14.01,2013-04-30 03:55:00,
2013-04-29 23:00:00,66.7,64.9,29.86,SSW,195,0.0,0.0,94,0.00,,---,0.20,VWS V14.01,2013-04-30 04:00:00,
2013-04-29 23:01:00,66.7,65.2,29.86,SSW,195,0.0,0.0,95,0.00,,---,0.20,VWS V14.01,2013-04-30 04:01:00,
2013-04-29 23:06:00,66.7,64.9,29.85,SSW,195,0.0,1.0,94,0.00,,---,0.20,VWS V14.01,2013-04-30 04:06:00,
2013-04-29 23:11:00,66.6,64.8,29.86,SSW,195,0.0,1.0,94,0.00,,---,0.20,VWS V14.01,2013-04-30 04:11:00,
2013-04-29 23:16:00,66.4,64.6,29.85,SSW,195,0.0,1.0,94,0.00,,---,0.20,VWS V14.01,2013-04-30 04:16:00,
2013-04-29 23:21:00,66.4,64.6,29.86,SSW,195,0.0,1.0,94,0.00,,---,0.20,VWS V14.01,2013-04-30 04:21:00,
2013-04-29 23:26:00,66.2,64.4,29.85,SSW,195,0.0,1.0,94,0.00,,---,0.20,VWS V14.01,2013-04-30 04:26:00,
2013-04-29 23:31:00,65.9,64.1,29.86,SSW,195,0.0,0.0,94,0.00,,---,0.20,VWS V14.01,2013-04-30 04:31:00,
2013-04-29 23:36:00,65.8,64.0,29.85,SSW,195,0.0,0.0,94,0.00,,---,0.20,VWS V14.01,2013-04-30 04:36:00,
2013-04-29 23:41:00,65.7,63.9,29.86,SSW,195,0.0,0.0,94,0.00,,---,0.20,VWS V14.01,2013-04-30 04:41:00,
2013-04-29 23:46:00,65.7,64.2,29.86,SSW,195,0.0,0.0,95,0.00,,---,0.20,VWS V14.01,2013-04-30 04:46:00,
2013-04-29 23:51:00,65.6,64.1,29.85,SSW,195,0.0,0.0,95,0.00,,---,0.20,VWS V14.01,2013-04-30 04:51:00,
2013-04-29 23:56:00,65.6,64.1,29.85,SSW,195,0.0,0.0,95,0.00,,---,0.20,VWS V14.01,2013-04-30 04:56:00,